Temp
24 24 24 24 24 24 25 25 25 25 24 24 24 23 23 22 22 21 21 21 21 21 21 22 22 23 23 23 23 22 22 22 22 22 22 22 22 22 22 22 22 23 23 23 23 23 23 23 23 23 23 22 22 22 22 22 22 21 21 21 20 20 20
25 25 25 24 25 24 25 25 25 25 25 24 24 23 23 23 22 22 21 21 21 21 21 21 22 23 23 23 23 23 22 22 22 22 22 22 22 22 23 22 23 23 23 23 23 23 23 23 23 23 23 23 22 22 22 22 22 22 21 21 21 21 21
25 25 25 25 25 25 25 25 25 25 25 24 24 24 23 23 23 22 22 21 21 21 21 21 22 23 23 23 23 23 23 22 23 22 22 22 22 23 23 23 23 23 23 23 23 23 23 23 23 23 23 23 23 22 22 22 22 22 22 22 22 21 21
25 25 25 25 25 25 25 25 25 25 25 24 24 24 24 23 23 23 22 22 21 21 21 21 21 22 23 23 23 23 23 23 23 23 23 23 23 23 23 23 23 23 23 23 23 23 23 23 23 23 23 23 23 23 22 22 22 22 22 22 22 22 22
26 26 26 26 25 25 25 25 25 25 25 24 24 24 24 23 23 23 22 22 22 21 21 21 21 22 22 23 23 23 24 23 23 23 23 23 23 23 23 23 23 23 23 23 23 23 23 23 23 23 23 23 23 23 23 22 22 22 22 22 22 22 22
26 26 26 26 26 25 25 25 25 25 25 25 24 24 24 24 23 23 23 22 22 22 21 21 21 22 22 22 22 23 23 24 23 23 23 23 23 23 23 23 23 23 23 23 23 23 23 23 23 22 22 22 23 23 23 23 23 22 22 22 22 22 22
27 27 27 26 26 26 26 25 25 25 25 24 24 24 24 24 23 23 23 23 22 22 21 21 21 21 22 22 22 22 23 23 24 24 23 23 23 23 23 23 23 23 23 23 23 23 23 23 23 22 22 22 22 23 23 23 23 23 22 22 22 22 22
27 27 27 27 27 26 26 25 25 25 25 24 24 24 24 24 24 23 23 23 23 22 22 21 21 22 22 22 22 22 22 23 24 24 24 24 23 23 23 23 23 23 23 23 23 24 23 23 23 22 22 22 22 22 23 23 23 23 23 23 23 23 22
28 28 27 27 27 26 26 26 25 25 25 24 24 24 24 24 24 24 23 23 23 22 22 22 22 22 22 22 22 22 22 22 23 24 24 24 24 24 24 24 24 24 23 23 24 24 24 24 23 23 22 22 22 22 23 23 23 23 23 23 23 23 23
28 28 28 28 27 27 26 26 26 25 25 25 25 24 24 24 24 24 24 23 23 23 23 22 22 22 22 22 22 22 21 22 22 23 23 24 24 24 24 24 24 24 24 24 24 23 23 24 23 23 22 22 22 22 23 23 23 23 23 23 23 23 23
29 28 28 28 27 27 27 26 26 25 25 25 25 24 24 24 24 24 24 24 23 23 23 22 22 22 22 22 21 21 21 21 22 22 23 24 24 24 24 24 24 24 24 24 23 23 23 23 23 23 22 22 22 23 23 23 23 23 23 23 23 23 23
28 28 28 28 28 27 27 26 26 25 25 25 25 25 24 24 24 24 24 24 24 23 23 22 22 22 21 21 21 21 21 21 21 22 23 23 24 24 24 23 23 23 23 23 23 23 23 23 23 22 22 22 23 23 23 23 23 23 24 23 23 23 23
26 26 27 27 28 28 27 27 26 26 26 26 25 25 25 25 25 24 24 24 24 23 23 23 22 22 21 21 21 21 21 21 21 22 23 23 24 24 23 23 23 23 23 23 23 23 22 22 22 22 23 23 23 23 23 23 23 23 23 23 23 23 23
23 24 25 26 25 27 27 27 27 27 26 26 26 25 25 25 25 25 25 24 24 24 23 23 23 22 22 21 21 21 21 21 21 22 22 23 23 24 23 23 23 23 23 23 23 22 22 22 22 22 22 23 22 22 22 22 23 23 23 23 23 23 23
22 22 23 23 23 25 26 26 26 26 26 26 26 25 25 25 25 25 25 24 24 24 24 23 23 22 22 22 22 21 21 21 21 21 22 22 23 23 23 23 23 23 23 22 23 22 22 22 22 22 22 22 22 22 22 22 22 23 23 23 23 23 23
21 20 20 20 21 22 22 23 24 25 25 25 25 25 25 25 25 25 25 24 24 24 24 23 23 23 22 22 22 22 21 21 21 21 21 22 22 23 23 23 23 22 22 22 22 22 22 22 22 22 22 22 22 22 22 22 22 22 23 23 23 23 23
19 19 19 19 19 21 21 21 22 24 24 24 25 25 25 24 24 24 24 24 24 24 24 23 23 23 23 23 22 22 22 21 21 21 21 22 22 23 23 23 23 22 22 22 22 22 22 22 22 21 21 22 22 22 22 22 22 22 23 23 23 23 23
18 18 18 18 18 20 21 21 21 21 22 23 24 24 25 25 24 24 24 24 24 24 23 23 23 23 23 23 22 22 22 21 21 21 21 21 22 23 23 23 23 22 22 22 22 22 22 22 22 21 21 22 22 22 22 22 22 22 23 23 23 23 23
17 17 17 17 17 18 19 20 21 20 20 21 22 23 24 25 25 24 24 24 24 24 23 23 22 22 23 23 23 22 22 22 22 21 21 22 22 22 23 23 22 22 22 22 22 22 22 22 22 22 21 21 22 22 22 22 22 22 23 23 23 23 23
16 16 16 16 16 16 17 18 20 20 20 21 22 22 22 24 25 25 25 25 25 25 24 23 22 22 22 23 23 23 23 22 22 22 22 22 22 22 22 22 22 23 22 22 22 22 22 22 22 22 22 22 22 22 22 22 22 22 23 23 23 23 23
15 15 15 15 15 15 15 16 18 20 20 20 22 22 22 23 24 24 25 25 25 25 25 25 24 23 23 23 23 23 23 23 23 22 22 22 22 22 22 22 22 22 22 22 22 22 22 22 22 22 22 22 22 22 22 22 22 22 23 23 23 23 23
14 14 14 14 14 14 15 15 17 18 19 20 21 22 22 22 22 22 23 24 25 25 25 25 25 25 24 24 24 24 24 23 23 23 22 22 22 22 22 22 22 22 22 22 22 22 22 22 22 22 22 22 22 22 22 22 22 22 22 23 23 23 23
14 13 13 13 13 13 14 15 17 18 19 20 21 21 21 22 22 22 22 23 24 25 25 25 25 25 25 24 24 24 24 24 24 23 23 23 22 22 22 22 22 22 22 22 22 22 22 22 22 22 22 22 22 22 22 22 22 22 22 22 23 23 23
13 13 13 13 13 13 14 15 16 18 19 20 21 21 21 22 23 23 23 23 23 24 25 25 25 25 25 25 24 25 25 24 24 24 23 23 23 23 22 22 22 22 22 22 22 22 22 22 22 22 22 22 22 22 22 22 22 22 22 22 22 22 23
12 12 12 13 13 13 13 14 15 17 18 20 21 21 21 21 22 23 24 23 23 23 24 25 26 25 25 25 25 25 25 25 24 24 24 24 23 23 23 23 22 22 22 22 22 22 22 22 22 22 22 22 22 22 22 22 22 22 22 22 22 22 22
11 12 12 13 13 13 13 14 14 16 17 19 20 21 20 20 21 22 23 23 24 23 24 25 26 26 25 26 26 25 25 25 25 24 24 24 24 23 23 23 22 22 22 22 22 22 22 22 22 22 22 22 22 22 22 22 22 22 22 22 22 22 22
11 12 12 12 12 13 13 13 14 15 16 17 19 20 20 20 20 21 22 23 24 24 24 24 25 26 26 26 26 26 25 25 25 25 25 24 24 23 23 23 23 22 22 22 22 22 22 22 22 22 22 22 22 22 22 22 22 22 22 22 22 22 22
11 12 12 12 12 12 13 13 14 14 15 16 18 19 19 19 20 21 21 22 23 24 25 25 25 25 26 26 26 26 25 25 25 25 24 24 24 23 23 23 23 22 22 22 22 22 22 22 22 22 22 22 22 22 22 22 22 22 22 22 22 22 22
11 12 12 12 12 12 12 13 13 14 14 15 16 17 18 18 19 20 21 22 23 24 24 25 25 25 26 26 26 26 25 25 25 24 24 24 24 23 23 23 23 22 22 22 22 22 22 22 22 22 22 22 22 22 22 22 22 22 22 22 22 22 22
11 11 11 12 12 12 12 12 13 14 14 14 15 16 17 17 18 20 21 22 23 23 24 25 25 25 25 26 26 26 26 25 25 24 24 24 24 23 23 23 22 22 22 22 22 22 22 22 22 22 22 22 22 22 22 22 22 22 22 22 22 23 23
11 11 11 11 11 12 12 12 13 14 14 14 14 15 16 17 17 19 21 23 23 23 24 24 25 25 25 26 27 26 26 25 25 25 24 24 24 23 23 23 22 22 22 22 22 22 22 22 22 22 22 22 22 22 22 22 22 22 23 23 23 23 23
10 10 11 11 11 12 12 13 13 14 14 14 14 15 16 17 17 19 21 22 23 23 23 24 25 25 25 26 27 26 26 25 25 25 24 24 23 23 23 22 22 22 22 22 22 22 22 22 22 22 22 22 22 22 22 22 22 22 23 23 23 23 23
10 10 11 11 11 11 12 13 13 14 14 14 14 15 16 17 18 19 20 21 22 23 23 25 26 25 25 26 27 26 26 25 25 24 24 24 23 23 22 22 22 22 22 21 21 22 22 22 22 22 22 22 22 22 22 23 22 22 23 23 23 23 23
10 10 10 11 11 11 11 12 13 13 14 14 14 15 16 17 18 20 20 21 22 22 23 25 26 26 26 27 27 26 26 25 25 24 24 23 23 22 22 22 22 22 22 22 21 22 22 22 22 22 22 22 23 23 23 23 23 23 23 23 23 23 23
9 9 10 11 11 11 11 12 13 13 14 14 14 15 16 16 18 19 20 20 21 21 22 24 26 26 26 27 27 26 26 25 25 24 24 23 23 22 22 22 22 22 22 21 22 22 22 22 22 23 23 23 23 23 23 23 23 23 24 24 24 24 24
9 9 9 10 11 11 11 12 13 13 14 14 14 15 16 16 17 18 18 19 20 21 21 23 25 25 26 26 26 26 25 25 24 24 24 23 23 22 22 22 22 22 21 21 21 22 22 22 23 23 23 23 23 23 23 24 24 24 24 24 24 24 24
9 9 9 10 11 11 11 13 13 13 14 14 13 14 15 16 17 17 18 18 20 20 21 22 23 25 26 26 26 25 25 25 24 24 23 23 23 22 22 22 22 21 21 21 21 21 21 22 22 23 23 23 23 23 24 24 24 24 23 23 23 23 23
9 9 9 10 11 10 11 12 13 13 13 13 12 13 14 15 16 17 17 18 19 20 21 21 22 23 25 25 25 25 25 24 24 23 23 22 22 22 22 22 22 21 21 21 21 21 21 21 21 22 22 22 23 23 23 24 24 23 23 23 23 23 23
Height
1468 1470 1472 1475 1478 1481 1484 1487 1492 1496 1499 1502 1506 1510 1514 1517 1521 1523 1525 1528 1530 1533 1535 1537 1540 1543 1547 1550 1553 1556 1559 1562 1564 1565 1567 1569 1571 1573 1574 1576 1577 1579 1580 1581 1583 1584 1586 1587 1588 1589 1590 1591 1592 1593 1594 1595 1596 1597 1598 1599 1600 1600 1601
1464 1467 1469 1472 1475 1477 1480 1484 1488 1492 1496 1499 1503 1507 1511 1514 1517 1519 1521 1523 1526 1529 1532 1534 1536 1540 1543 1546 1550 1553 1556 1558 1561 1563 1565 1567 1569 1571 1573 1574 1575 1577 1578 1580 1581 1583 1584 1585 1586 1587 1589 1590 1591 1592 1593 1594 1595 1596 1597 1598 1599 1599 1600
1459 1462 1464 1467 1470 1472 1476 1480 1485 1488 1492 1495 1499 1503 1507 1510 1513 1515 1517 1519 1523 1526 1529 1531 1533 1536 1539 1543 1546 1549 1552 1555 1558 1560 1562 1564 1566 1568 1570 1572 1574 1575 1577 1578 1580 1581 1583 1584 1585 1586 1587 1588 1589 1590 1591 1592 1593 1594 1595 1596 1597 1598 1599
1453 1455 1458 1462 1465 1469 1473 1476 1480 1484 1488 1491 1494 1498 1502 1505 1509 1512 1514 1516 1519 1522 1525 1527 1530 1533 1536 1539 1542 1545 1548 1552 1554 1557 1559 1561 1564 1566 1568 1569 1571 1573 1574 1576 1578 1579 1581 1582 1583 1584 1585 1586 1587 1589 1590 1591 1592 1593 1594 1595 1596 1597 1597
1449 1451 1455 1460 1462 1467 1470 1473 1476 1479 1483 1487 1491 1494 1498 1502 1506 1509 1511 1512 1515 1518 1521 1525 1527 1530 1533 1536 1539 1542 1544 1548 1551 1553 1556 1559 1561 1563 1565 1566 1568 1570 1572 1574 1575 1577 1578 1579 1581 1582 1583 1584 1585 1586 1588 1589 1590 1591 1592 1593 1594 1595 1596
1448 1450 1454 1457 1460 1464 1466 1469 1472 1475 1479 1483 1487 1491 1495 1499 1502 1505 1507 1509 1511 1515 1519 1522 1524 1526 1529 1532 1535 1538 1541 1544 1547 1550 1553 1555 1558 1560 1561 1563 1565 1567 1569 1571 1573 1574 1575 1577 1578 1579 1581 1582 1583 1584 1585 1587 1588 1589 1590 1591 1592 1593 1594
1446 1449 1451 1453 1456 1459 1461 1465 1468 1472 1476 1480 1484 1488 1491 1495 1498 1501 1504 1506 1508 1511 1515 1518 1520 1522 1525 1528 1532 1535 1537 1540 1543 1546 1549 1552 1555 1556 1558 1560 1562 1564 1566 1568 1570 1572 1573 1574 1575 1577 1578 1579 1581 1582 1583 1584 1585 1586 1588 1589 1590 1591 1592
1441 1444 1447 1450 1452 1454 1457 1461 1465 1469 1473 1477 1481 1484 1487 1491 1495 1498 1501 1503 1506 1508 1510 1513 1516 1518 1520 1524 1527 1530 1533 1536 1539 1542 1545 1548 1551 1553 1555 1557 1559 1561 1563 1565 1566 1568 1570 1572 1573 1574 1575 1577 1578 1579 1580 1582 1583 1584 1585 1586 1588 1588 1589
1434 1439 1443 1446 1449 1452 1455 1457 1461 1466 1470 1474 1477 1480 1484 1488 1491 1494 1497 1500 1503 1504 1506 1509 1512 1514 1517 1520 1523 1526 1529 1532 1535 1538 1541 1544 1546 1548 1551 1553 1556 1558 1560 1561 1563 1565 1567 1569 1570 1572 1573 1574 1575 1576 1578 1579 1580 1582 1583 1584 1585 1586 1587
1428 1434 1438 1443 1446 1449 1453 1456 1459 1463 1467 1470 1474 1477 1480 1483 1486 1490 1494 1496 1498 1499 1502 1505 1508 1511 1513 1516 1518 1522 1526 1528 1530 1533 1536 1538 1541 1544 1547 1550 1552 1555 1556 1558 1560 1562 1564 1566 1567 1569 1570 1571 1572 1573 1575 1576 1577 1579 1580 1581 1583 1584 1585
1426 1431 1434 1440 1445 1448 1452 1455 1457 1460 1463 1467 1470 1473 1476 1479 1483 1486 1489 1492 1494 1495 1498 1501 1505 1508 1510 1512 1514 1518 1521 1523 1526 1528 1530 1533 1536 1539 1542 1546 1548 1551 1553 1555 1557 1558 1560 1562 1564 1566 1567 1568 1569 1570 1572 1573 1575 1576 1577 1579 1580 1581 1582
1427 1431 1433 1436 1441 1445 1449 1452 1455 1458 1460 1464 1467 1469 1472 1475 1479 1482 1485 1488 1490 1492 1495 1497 1501 1505 1507 1508 1510 1513 1516 1518 1521 1523 1525 1528 1531 1535 1538 1541 1544 1546 1549 1551 1553 1555 1556 1558 1560 1562 1563 1564 1566 1567 1568 1570 1572 1573 1574 1576 1577 1578 1580
1432 1435 1437 1438 1439 1442 1445 1448 1453 1455 1457 1460 1463 1465 1468 1471 1474 1478 1481 1484 1487 1490 1492 1494 1497 1501 1503 1505 1506 1508 1510 1513 1515 1518 1521 1524 1527 1530 1534 1537 1539 1542 1544 1547 1549 1551 1553 1554 1556 1558 1559 1561 1562 1564 1565 1567 1568 1570 1571 1572 1574 1575 1577
1439 1439 1441 1444 1444 1444 1445 1446 1449 1451 1454 1457 1459 1462 1464 1467 1470 1474 1476 1480 1484 1487 1489 1492 1495 1497 1499 1501 1502 1503 1505 1508 1511 1514 1517 1520 1523 1527 1530 1532 1535 1537 1540 1542 1544 1546 1548 1550 1552 1554 1556 1557 1559 1560 1562 1563 1565 1566 1568 1569 1571 1572 1573
1446 1446 1447 1448 1447 1449 1452 1452 1451 1451 1453 1455 1457 1460 1462 1464 1468 1471 1474 1478 1481 1485 1487 1489 1492 1494 1496 1498 1498 1499 1501 1504 1508 1511 1514 1517 1520 1523 1525 1528 1531 1533 1536 1538 1540 1542 1545 1547 1549 1551 1552 1554 1555 1557 1559 1560 1561 1563 1564 1566 1567 1569 1570
1451 1454 1455 1452 1450 1453 1456 1456 1456 1457 1458 1459 1460 1462 1462 1464 1466 1468 1472 1475 1479 1482 1484 1488 1490 1492 1494 1494 1494 1495 1498 1502 1505 1508 1511 1514 1516 1518 1521 1524 1527 1530 1532 1534 1536 1538 1541 1543 1545 1547 1549 1550 1552 1554 1555 1556 1557 1559 1561 1563 1564 1566 1567
1455 1458 1459 1457 1455 1455 1456 1457 1458 1460 1462 1464 1465 1466 1467 1468 1469 1470 1472 1475 1478 1481 1484 1487 1489 1490 1491 1492 1492 1494 1497 1499 1502 1505 1507 1509 1512 1514 1517 1520 1523 1525 1528 1530 1532 1534 1537 1539 1541 1543 1545 1547 1548 1550 1551 1552 1554 1555 1558 1560 1561 1563 1564
1461 1462 1463 1461 1459 1457 1457 1458 1459 1461 1463 1464 1465 1466 1468 1469 1470 1472 1474 1477 1480 1484 1487 1489 1491 1491 1492 1492 1493 1494 1495 1497 1499 1502 1504 1506 1508 1511 1513 1517 1519 1521 1524 1526 1528 1530 1533 1535 1537 1539 1541 1543 1544 1546 1547 1549 1550 1552 1554 1556 1558 1560 1561
1465 1465 1466 1465 1463 1461 1460 1460 1461 1462 1463 1463 1464 1465 1466 1467 1469 1470 1473 1476 1478 1481 1485 1489 1492 1493 1494 1494 1494 1493 1493 1495 1497 1498 1500 1502 1504 1507 1510 1513 1515 1517 1519 1521 1524 1526 1529 1531 1533 1535 1537 1539 1541 1542 1544 1545 1547 1549 1551 1553 1555 1557 1558
1467 1467 1468 1468 1467 1465 1465 1464 1464 1463 1462 1462 1463 1463 1464 1467 1469 1470 1471 1474 1476 1478 1482 1487 1492 1494 1494 1494 1493 1492 1492 1494 1494 1496 1497 1499 1502 1505 1507 1509 1511 1513 1515 1518 1520 1523 1524 1526 1529 1531 1533 1535 1537 1539 1540 1542 1543 1545 1547 1549 1551 1553 1555
1468 1469 1469 1469 1469 1469 1468 1467 1466 1466 1464 1462 1461 1461 1462 1464 1467 1469 1470 1471 1474 1476 1478 1482 1487 1491 1491 1491 1490 1490 1490 1491 1491 1493 1495 1497 1500 1502 1503 1505 1507 1509 1512 1515 1517 1518 1520 1522 1525 1527 1530 1531 1533 1535 1536 1538 1540 1542 1544 1546 1548 1550 1552
1469 1471 1472 1470 1469 1469 1468 1466 1466 1466 1465 1464 1462 1461 1462 1462 1463 1466 1469 1470 1472 1474 1476 1478 1480 1482 1484 1485 1486 1485 1485 1486 1488 1489 1492 1494 1497 1498 1499 1501 1503 1506 1509 1511 1513 1515 1517 1519 1521 1523 1526 1528 1530 1531 1533 1534 1536 1538 1540 1543 1544 1546 1548
1472 1473 1473 1472 1470 1469 1467 1465 1463 1462 1462 1463 1463 1462 1462 1462 1462 1463 1466 1468 1469 1470 1473 1474 1475 1476 1477 1479 1480 1480 1480 1481 1483 1485 1488 1490 1492 1493 1495 1497 1500 1503 1506 1508 1510 1512 1513 1515 1517 1520 1522 1524 1526 1527 1529 1531 1533 1535 1537 1539 1541 1543 1544
1473 1475 1474 1472 1470 1468 1466 1464 1462 1460 1458 1458 1460 1461 1461 1461 1461 1461 1462 1464 1466 1468 1469 1470 1470 1471 1472 1473 1475 1475 1476 1477 1479 1481 1483 1485 1486 1488 1491 1494 1497 1500 1502 1505 1507 1508 1510 1512 1514 1517 1518 1520 1522 1523 1525 1527 1529 1531 1533 1535 1537 1539 1540
1474 1475 1473 1471 1469 1468 1466 1463 1460 1459 1457 1455 1456 1457 1457 1458 1459 1459 1460 1461 1462 1464 1465 1465 1466 1466 1467 1468 1470 1471 1472 1473 1474 1476 1478 1480 1482 1485 1488 1490 1493 1496 1499 1501 1503 1505 1508 1509 1511 1513 1515 1516 1518 1520 1522 1523 1525 1527 1529 1531 1533 1535 1536
1475 1474 1471 1469 1468 1466 1464 1461 1459 1457 1455 1453 1453 1453 1455 1456 1458 1459 1458 1458 1458 1458 1459 1460 1461 1462 1463 1465 1466 1468 1469 1469 1470 1471 1473 1475 1478 1481 1485 1487 1490 1493 1496 1498 1500 1503 1505 1506 1508 1509 1511 1513 1515 1516 1518 1520 1521 1523 1525 1527 1529 1531 1532
1474 1473 1470 1468 1467 1464 1461 1459 1457 1455 1454 1452 1451 1451 1452 1453 1455 1456 1455 1454 1453 1453 1454 1456 1458 1459 1461 1462 1463 1464 1465 1465 1466 1467 1469 1471 1474 1478 1481 1484 1487 1489 1491 1494 1497 1499 1501 1503 1504 1506 1507 1509 1511 1512 1514 1515 1517 1519 1521 1523 1525 1527 1529
1471 1471 1470 1468 1466 1464 1461 1458 1456 1454 1452 1451 1449 1449 1449 1449 1450 1450 1450 1449 1448 1449 1450 1452 1454 1456 1457 1458 1459 1460 1461 1461 1462 1463 1466 1469 1471 1474 1477 1480 1483 1485 1488 1490 1493 1495 1497 1499 1500 1502 1503 1505 1507 1508 1510 1511 1513 1515 1517 1519 1521 1523 1525
1472 1470 1469 1467 1465 1464 1462 1459 1457 1455 1452 1450 1448 1447 1446 1446 1444 1445 1445 1444 1444 1446 1447 1448 1449 1451 1452 1453 1454 1456 1457 1458 1459 1460 1463 1465 1467 1470 1473 1476 1479 1481 1484 1486 1489 1491 1493 1495 1497 1498 1499 1501 1503 1504 1506 1507 1509 1511 1512 1515 1517 1518 1520
1473 1470 1468 1467 1465 1464 1462 1460 1457 1454 1451 1449 1447 1445 1445 1443 1441 1439 1439 1439 1440 1442 1443 1444 1445 1446 1447 1448 1449 1451 1453 1454 1456 1457 1459 1461 1464 1466 1469 1472 1475 1477 1479 1482 1484 1486 1489 1491 1493 1494 1495 1497 1498 1500 1502 1504 1505 1506 1508 1510 1512 1514 1515
1474 1470 1467 1466 1464 1463 1461 1458 1455 1451 1449 1447 1445 1444 1442 1441 1439 1435 1434 1434 1436 1437 1438 1439 1440 1440 1441 1442 1443 1445 1448 1450 1452 1454 1455 1457 1460 1461 1464 1467 1471 1473 1475 1477 1479 1482 1484 1486 1488 1490 1491 1493 1494 1496 1497 1499 1500 1502 1503 1505 1507 1509 1510
1473 1470 1467 1465 1463 1461 1459 1457 1453 1449 1445 1443 1443 1441 1439 1438 1436 1433 1431 1431 1432 1432 1432 1433 1433 1433 1434 1436 1438 1440 1443 1445 1447 1449 1451 1454 1456 1458 1460 1464 1466 1469 1471 1473 1475 1477 1479 1481 1484 1486 1488 1489 1490 1491 1493 1495 1496 1497 1499 1501 1503 1504 1506
1470 1468 1466 1463 1461 1460 1458 1455 1451 1447 1442 1440 1438 1437 1435 1434 1433 1431 1429 1428 1428 1427 1427 1427 1427 1427 1429 1430 1432 1435 1438 1440 1442 1444 1447 1450 1452 1455 1458 1461 1463 1466 1468 1469 1470 1472 1475 1477 1480 1482 1484 1485 1486 1488 1489 1490 1492 1493 1495 1496 1498 1500 1502
1467 1465 1463 1462 1460 1460 1457 1453 1449 1445 1441 1437 1435 1433 1431 1430 1429 1428 1427 1425 1424 1423 1423 1422 1423 1423 1424 1426 1428 1430 1432 1435 1437 1440 1443 1446 1449 1452 1454 1456 1459 1460 1461 1462 1464 1466 1468 1471 1474 1476 1478 1480 1482 1484 1486 1487 1488 1488 1489 1491 1493 1495 1497
1465 1463 1462 1460 1460 1458 1456 1452 1448 1444 1440 1436 1433 1430 1428 1426 1425 1425 1423 1422 1421 1421 1420 1419 1419 1420 1421 1422 1423 1425 1428 1431 1434 1436 1440 1443 1445 1447 1449 1451 1453 1455 1455 1457 1459 1461 1463 1465 1467 1469 1471 1474 1476 1479 1480 1482 1482 1483 1485 1487 1489 1491 1493
1463 1461 1460 1459 1458 1457 1454 1450 1447 1444 1440 1435 1431 1428 1425 1423 1422 1422 1421 1420 1419 1418 1418 1417 1417 1417 1418 1419 1420 1422 1425 1428 1430 1433 1436 1438 1440 1442 1444 1446 1449 1451 1452 1454 1456 1459 1461 1462 1464 1466 1468 1470 1472 1474 1476 1477 1479 1481 1483 1485 1488 1489 1491
1461 1459 1458 1458 1456 1454 1452 1448 1445 1442 1439 1435 1431 1427 1423 1422 1420 1419 1418 1417 1417 1416 1416 1415 1415 1415 1414 1415 1417 1419 1422 1425 1427 1430 1432 1434 1436 1438 1440 1443 1445 1447 1449 1452 1454 1456 1459 1461 1463 1465 1467 1468 1470 1472 1474 1476 1479 1481 1483 1484 1486 1488 1489
1458 1457 1457 1456 1455 1453 1450 1446 1442 1440 1437 1434 1431 1426 1423 1420 1418 1416 1415 1414 1413 1413 1413 1413 1413 1413 1412 1412 1412 1414 1416 1419 1421 1424 1428 1432 1435 1436 1437 1439 1442 1444 1446 1449 1452 1454 1456 1459 1461 1463 1465 1467 1468 1470 1472 1474 1477 1479 1481 1482 1484 1486 1487
Wind_Speed
40 40 42 42 44 45 44 44 45 46 46 46 46 45 45 45 45 45 46 47 48 48 48 47 44 42 42 42 42 41 40 40 40 38 35 32 31 29 28 27 25 23 21 19 16 15 14 13 13 12 11 12 12 12 12 11 11 10 11 11 12 12 10
40 40 43 44 44 46 47 45 45 46 47 46 46 46 46 46 46 46 47 47 48 48 49 48 47 45 43 43 43 43 42 41 41 40 37 35 33 31 29 28 27 25 23 21 19 17 16 15 14 13 11 11 12 13 13 12 12 11 11 11 12 12 11
43 43 44 46 46 47 48 48 47 47 47 47 48 48 47 47 47 47 47 48 48 48 49 49 48 47 45 44 44 44 43 43 42 41 40 38 35 33 31 29 28 27 25 23 22 20 19 18 16 15 14 12 12 13 13 13 13 13 13 12 12 12 11
45 46 47 46 46 47 48 49 49 48 48 48 49 51 50 49 48 48 48 48 48 48 50 50 49 48 47 46 46 45 45 45 44 43 42 40 38 36 34 32 31 29 27 26 24 22 21 20 19 17 16 15 14 14 14 14 13 13 14 14 13 13 12
45 46 45 44 44 45 46 48 50 50 50 49 49 51 52 50 48 48 48 48 48 48 48 49 48 48 48 48 47 46 45 45 45 44 43 42 40 39 37 35 33 32 30 28 26 25 23 23 21 20 19 18 17 16 16 15 15 14 15 15 15 14 13
42 42 42 42 44 45 47 48 50 52 52 52 51 50 50 50 49 48 49 48 48 48 47 48 48 47 48 49 49 48 47 46 45 45 44 44 43 41 40 38 36 35 33 31 29 27 25 25 23 22 20 20 19 18 18 18 17 16 16 16 16 15 14
41 41 42 44 44 46 48 49 50 52 53 52 51 50 50 50 50 49 49 49 48 47 47 48 48 47 47 49 50 50 49 48 46 46 45 45 44 43 42 40 39 37 35 33 31 29 28 27 26 24 23 21 21 20 20 20 20 19 18 17 17 16 16
44 43 43 45 46 48 49 49 49 50 51 50 49 49 50 50 50 48 48 48 48 47 48 48 48 47 46 48 50 51 51 50 48 47 46 46 45 45 43 42 40 39 37 36 34 32 30 29 28 27 26 25 24 23 21 21 21 21 20 19 18 18 17
48 47 46 46 45 47 49 49 49 49 49 49 49 49 50 50 51 49 47 46 47 47 48 48 49 48 46 46 48 51 51 51 50 48 47 47 47 46 44 43 41 40 39 38 36 34 33 31 30 29 28 28 27 26 24 23 22 22 22 22 21 20 19
48 48 48 48 45 46 47 46 47 48 48 49 48 48 49 49 50 50 47 46 47 48 48 48 48 48 47 46 47 49 51 51 51 50 49 49 49 48 46 44 42 41 40 39 38 37 35 33 31 30 30 30 30 29 27 26 24 23 23 22 21 21 21
42 49 47 46 44 43 45 45 45 46 47 49 49 49 50 50 51 51 49 47 47 48 48 47 48 48 47 47 47 48 50 51 52 51 50 50 50 49 47 46 44 43 42 41 40 38 37 35 33 32 32 32 32 31 30 28 26 25 24 23 22 21 22
28 45 44 47 48 44 42 43 45 46 47 49 48 48 49 50 51 52 52 51 49 48 47 47 46 46 46 45 46 48 50 51 52 53 52 51 50 49 48 47 46 45 43 42 41 40 39 37 35 34 33 33 33 33 31 29 28 27 26 25 24 22 22
22 17 17 27 38 46 47 45 45 46 47 49 49 49 50 50 51 52 52 53 52 50 48 47 46 45 44 43 43 46 49 51 53 53 53 51 50 49 49 48 46 45 44 43 42 41 40 39 37 36 35 34 34 34 33 31 30 29 27 26 26 25 24
37 34 24 15 8 21 40 45 47 49 48 48 48 48 49 48 48 51 53 54 54 52 50 49 47 45 44 43 43 44 47 50 52 53 53 52 50 49 49 49 47 46 45 44 43 42 42 40 39 37 36 35 35 35 34 33 32 31 29 28 27 26 26
37 36 30 30 31 15 11 21 32 42 46 48 48 48 48 48 47 48 51 53 53 52 52 49 47 47 45 44 44 45 46 48 50 52 52 51 51 50 49 49 48 46 45 44 43 42 42 41 40 39 38 36 36 35 35 35 34 33 31 29 28 27 27
33 33 32 32 32 26 19 13 6 17 25 32 37 39 41 44 46 47 49 52 51 50 50 48 47 47 47 46 46 46 45 47 49 50 51 52 51 50 50 49 48 47 46 45 44 42 42 41 41 40 39 38 37 36 36 36 36 34 32 30 29 28 28
31 30 30 31 30 27 26 23 16 8 8 12 19 26 29 32 37 42 44 47 48 46 46 46 47 47 47 48 48 46 44 45 47 49 50 52 52 51 50 49 48 47 46 46 44 42 41 41 41 41 41 40 39 37 37 37 36 35 33 31 30 29 28
30 30 30 30 30 28 25 24 20 15 11 6 5 15 23 26 29 35 38 39 39 37 36 38 42 45 47 47 47 46 45 45 46 49 50 51 52 51 50 49 48 48 47 46 45 43 41 40 40 41 41 40 39 38 37 37 36 35 33 31 30 29 28
28 29 29 29 29 29 26 21 17 15 14 12 10 3 12 22 27 32 36 37 37 36 33 30 32 37 42 47 46 46 46 46 46 48 50 51 52 51 50 50 49 49 48 47 46 43 42 40 40 41 42 41 40 39 38 37 36 35 34 32 31 29 28
28 29 29 28 27 27 25 20 15 13 11 7 9 10 3 13 23 30 36 38 38 39 38 34 32 33 36 44 48 47 47 47 48 49 50 51 51 51 51 51 50 50 49 48 46 45 44 42 40 40 41 41 40 39 38 36 35 34 33 32 31 29 28
29 29 29 29 28 26 24 22 18 14 11 9 5 6 7 5 10 19 30 35 35 35 37 37 39 40 39 43 48 49 48 49 49 49 50 50 50 51 51 51 51 51 50 48 48 47 46 44 42 41 41 41 41 39 38 37 35 33 32 31 29 28 28
28 28 28 28 28 27 26 25 22 18 14 11 8 4 2 5 4 4 13 23 28 30 34 37 41 45 44 44 48 51 51 51 50 50 50 50 50 50 52 52 52 51 50 49 48 48 47 46 44 43 41 41 41 40 39 38 36 34 32 29 27 26 27
25 26 27 27 26 26 27 25 23 21 17 13 10 9 7 7 10 7 6 12 21 29 34 36 40 45 46 43 48 53 53 51 51 51 50 50 51 51 52 52 52 52 51 49 48 48 48 47 45 44 42 41 41 42 40 39 37 35 33 30 28 26 27
26 27 29 29 28 28 29 26 24 23 20 18 14 11 11 10 16 17 12 10 16 26 34 37 38 44 46 45 47 52 54 53 52 51 50 51 52 52 52 52 51 52 51 50 49 48 48 47 46 45 44 42 42 42 42 40 38 36 34 32 30 29 29
26 27 30 31 30 31 31 29 27 25 23 22 19 15 14 11 15 21 21 18 17 21 29 37 40 42 46 47 47 50 54 54 52 52 51 51 52 52 52 51 51 51 51 51 49 47 46 45 45 45 44 44 43 42 43 42 40 38 36 34 33 32 31
26 28 31 32 32 32 32 31 29 28 26 25 23 19 17 15 15 21 25 25 24 22 24 33 41 43 44 46 47 48 52 54 53 52 52 51 51 51 51 50 50 49 50 51 49 47 45 44 44 44 44 44 43 43 43 43 43 41 39 36 34 33 33
26 27 29 32 32 32 34 33 31 30 28 26 25 23 20 18 18 21 24 26 29 30 28 29 35 42 44 44 44 46 50 53 53 53 52 51 50 50 49 49 49 49 49 50 49 47 45 44 43 44 44 44 43 43 43 43 43 43 42 41 38 36 35
27 27 29 31 30 32 35 35 33 32 30 28 27 25 23 22 22 23 25 26 30 34 33 30 30 36 42 45 44 43 47 52 53 52 51 50 49 49 49 49 49 48 48 48 49 48 46 44 43 43 43 43 43 43 43 42 42 41 41 42 42 41 39
27 29 30 31 30 31 34 36 35 34 33 32 30 27 25 24 25 25 27 29 30 31 32 32 31 34 40 45 45 43 45 49 51 51 50 49 49 49 49 49 48 48 47 47 48 48 48 46 44 43 43 42 42 42 42 41 40 39 38 38 40 42 42
24 28 30 29 29 30 33 35 35 34 34 33 31 29 26 25 27 28 30 31 30 28 29 31 31 34 41 47 48 47 46 47 49 50 49 49 48 48 48 48 48 48 47 47 48 48 48 48 46 44 43 42 42 41 41 40 38 37 35 34 34 35 37
20 25 28 27 28 29 31 34 35 35 34 33 31 29 27 26 27 30 32 32 29 28 29 29 29 33 43 50 50 49 49 48 49 49 48 48 48 48 48 48 48 48 48 47 48 49 49 49 48 46 44 43 42 42 40 39 37 36 34 32 30 30 30
19 22 25 25 27 29 31 33 34 34 34 33 31 30 28 27 27 29 32 32 30 28 29 29 28 32 43 53 52 50 50 49 49 49 48 47 47 47 47 47 48 48 48 47 48 49 50 50 50 48 46 45 44 43 42 40 38 36 34 32 30 29 28
20 21 22 23 25 28 30 32 33 34 35 34 32 30 30 28 27 27 28 29 29 28 28 30 30 32 42 52 52 50 52 51 50 49 47 46 46 45 45 46 47 48 48 48 49 50 50 50 50 50 49 47 45 44 43 41 40 38 36 34 32 31 29
21 21 22 21 23 26 29 30 32 34 34 33 31 29 29 29 26 25 25 26 27 26 26 29 29 32 42 52 51 50 52 51 50 49 46 45 45 44 45 46 48 49 51 52 52 52 51 51 51 51 52 51 49 46 44 43 42 40 39 37 35 32 31
21 21 22 21 21 24 27 29 30 32 33 31 29 25 24 26 24 23 24 25 23 23 24 26 28 33 43 52 51 49 50 49 48 47 45 44 45 45 46 47 48 50 52 52 52 52 52 52 53 53 53 53 52 50 47 46 45 44 42 39 36 33 32
21 21 22 22 20 22 25 26 26 30 31 30 28 23 21 21 21 21 23 24 24 22 22 22 28 36 45 50 48 48 48 47 46 46 45 45 46 46 46 47 48 49 50 50 51 51 50 50 51 51 51 51 52 51 50 48 47 45 43 40 36 34 33
21 22 22 22 21 22 24 24 24 27 30 31 30 25 20 19 19 18 20 23 25 24 20 19 26 37 44 46 45 45 46 45 45 45 45 46 46 46 47 47 48 49 50 49 49 50 49 48 48 48 48 49 49 49 48 47 46 44 42 40 37 35 34
21 21 22 22 20 22 24 22 23 26 29 32 32 28 23 20 17 15 17 20 23 24 21 19 22 31 40 44 45 46 47 48 46 44 42 41 42 44 47 48 49 49 49 48 47 47 47 47 46 46 46 46 45 45 45 44 44 43 42 40 38 35 33
Wind_Direction
190 191 190 192 193 194 194 194 196 195 195 195 195 196 199 199 199 201 203 204 204 205 204 204 207 208 208 208 209 210 208 206 204 206 209 208 205 203 203 204 207 209 210 213 210 203 203 205 206 210 209 209 213 213 208 205 204 205 205 201 199 205 214
189 192 192 193 194 195 196 194 195 195 194 195 196 196 198 199 200 202 204 205 206 206 205 205 206 209 210 211 211 211 211 210 209 209 211 212 213 212 211 210 212 215 216 218 218 215 214 215 216 218 217 212 212 217 218 213 210 209 211 211 207 212 219
189 191 191 192 194 195 196 196 196 196 196 197 198 198 198 199 201 203 205 206 207 208 207 206 207 209 211 212 212 213 213 213 212 212 212 214 216 217 217 217 217 220 220 222 223 222 221 223 226 226 227 224 215 216 222 222 219 216 216 217 213 215 219
189 191 192 191 193 194 195 196 196 196 198 198 200 200 200 200 202 203 206 207 207 208 208 208 208 209 211 212 214 215 215 215 215 215 215 217 218 220 221 222 223 223 224 225 226 226 226 226 230 231 231 232 226 220 221 224 226 224 221 223 220 218 221
190 191 191 191 192 193 194 196 197 197 197 198 199 200 201 201 202 204 207 208 209 209 210 210 209 210 211 213 215 216 217 217 217 217 218 218 219 221 222 224 226 226 227 229 230 230 229 227 229 231 231 232 232 228 224 224 228 228 226 228 227 225 224
192 191 190 190 191 192 194 196 198 198 198 198 198 200 201 201 202 204 206 208 209 210 210 211 211 212 213 214 215 216 218 219 219 219 220 220 221 222 224 226 227 229 229 230 231 232 230 229 229 231 232 233 234 232 229 226 227 230 229 230 232 232 230
191 190 189 190 190 192 194 196 197 198 199 199 199 200 201 201 202 204 206 208 210 210 210 211 212 213 214 215 216 217 218 219 220 221 221 222 223 224 225 227 228 230 231 231 232 231 230 229 230 233 235 236 238 238 233 228 227 230 232 232 233 234 234
189 188 189 191 191 191 193 195 196 198 198 198 199 200 201 202 203 204 205 207 210 210 211 212 212 213 215 217 217 217 218 220 220 221 222 223 225 226 227 227 228 229 231 232 232 232 231 229 229 231 235 238 241 242 240 233 229 230 233 235 235 235 235
186 187 189 191 191 192 194 195 196 198 198 198 198 199 201 202 204 204 204 207 209 211 212 213 214 214 216 217 219 219 219 220 220 222 223 224 225 226 227 227 228 229 230 232 232 232 233 232 230 230 233 237 240 242 244 241 234 230 232 236 238 237 237
184 184 188 191 190 192 194 194 195 197 198 198 199 200 202 203 204 203 203 205 209 211 213 214 214 215 215 217 220 220 219 220 221 221 222 223 225 226 227 227 228 229 230 231 232 233 234 234 233 232 233 235 237 240 243 244 240 234 232 235 238 238 238
185 185 186 188 189 191 193 193 192 195 197 197 198 199 202 203 204 203 202 203 207 210 212 213 214 215 216 218 219 219 219 220 220 220 221 223 224 226 226 227 228 229 230 230 231 232 233 234 234 233 232 234 236 238 241 242 243 240 236 235 236 237 237
171 184 186 187 189 190 192 192 192 193 195 196 197 199 202 204 204 204 204 204 206 208 210 211 212 214 216 217 218 219 220 220 219 220 221 222 224 225 225 225 226 228 229 229 230 231 231 232 232 232 232 233 235 237 239 239 240 241 239 237 236 237 237
79 120 153 179 188 190 191 191 192 194 195 196 198 200 203 205 206 207 206 207 208 209 210 211 211 213 215 216 217 218 219 220 220 220 221 222 223 223 223 223 224 225 227 228 229 229 229 229 230 231 232 233 234 235 237 237 238 239 239 238 237 237 238
44 53 66 70 95 181 191 191 192 195 197 199 200 201 204 207 209 210 209 209 210 210 211 212 212 213 214 215 217 218 218 219 220 220 220 221 222 222 222 222 223 223 226 227 228 227 227 227 229 230 231 232 233 234 235 236 236 236 236 237 237 238 239
36 42 50 48 45 65 165 187 192 196 197 199 200 202 205 208 210 212 211 210 211 212 213 213 213 213 213 214 218 220 219 219 220 220 219 219 220 221 221 221 221 222 223 225 227 227 227 226 227 229 230 231 232 233 234 234 234 234 235 237 238 238 239
33 32 33 38 44 48 45 47 136 189 196 198 200 202 205 208 209 210 211 211 212 214 215 214 213 214 214 215 218 221 220 219 219 219 218 218 220 221 221 220 220 220 221 223 226 227 226 224 224 226 228 230 231 231 231 232 233 233 235 237 239 239 240
27 25 25 28 32 35 36 40 52 93 163 193 204 205 206 210 212 211 211 211 212 215 216 215 216 216 216 217 219 220 219 218 218 218 218 218 219 220 220 219 218 218 219 222 224 226 225 222 221 223 226 229 231 231 230 231 232 233 235 236 239 240 240
22 18 18 20 22 25 28 30 35 48 66 86 177 206 209 211 212 212 211 211 211 214 215 215 218 219 220 220 220 220 220 219 218 218 218 218 219 219 219 218 217 218 218 219 222 224 224 221 219 221 224 227 229 231 231 231 232 233 234 236 237 239 240
19 15 13 14 14 16 18 17 16 18 27 47 61 107 212 214 210 206 206 207 208 209 211 216 224 226 225 223 220 220 221 220 219 218 219 219 219 219 219 217 216 217 217 218 220 222 222 222 219 219 221 225 228 230 231 233 233 234 235 235 236 237 238
13 9 7 8 8 8 8 5 357 349 346 4 52 61 119 216 218 210 204 204 208 211 215 223 231 233 228 223 222 222 221 221 220 220 219 219 219 218 218 217 216 216 216 216 218 219 221 221 219 218 219 223 227 230 232 233 234 235 235 236 236 236 237
8 4 1 0 0 359 355 349 347 344 330 319 352 57 98 161 214 212 204 205 210 214 219 224 227 228 226 222 221 222 222 221 222 221 220 219 218 218 218 218 217 216 215 215 215 218 220 221 220 219 219 221 225 228 231 234 236 237 236 237 237 237 236
4 359 355 353 354 351 344 338 338 340 334 325 321 314 197 164 176 218 217 218 220 220 222 225 225 223 222 220 220 221 221 221 222 222 220 219 218 218 218 218 217 215 214 214 215 217 219 220 221 221 220 220 222 226 230 233 236 238 237 238 238 237 236
0 353 347 347 347 342 337 334 333 333 332 328 318 307 293 243 222 233 257 244 237 231 228 227 226 223 220 220 221 221 220 220 221 221 220 219 218 219 219 218 218 216 214 213 214 216 218 219 220 221 221 220 221 224 228 231 234 237 238 238 239 238 237
356 348 342 342 341 335 332 333 332 329 328 325 315 301 302 272 225 222 239 250 245 239 233 230 229 225 221 221 223 222 220 220 220 220 221 220 220 220 220 219 218 217 214 214 214 215 217 219 219 221 222 222 222 222 225 228 231 235 237 238 239 239 239
347 342 340 340 339 335 333 331 329 325 321 320 318 310 304 283 231 228 243 248 242 241 238 236 234 229 224 224 225 223 221 220 220 220 221 222 222 221 220 220 219 218 216 215 215 215 217 218 219 220 221 223 224 224 224 225 228 231 234 236 237 238 240
338 337 339 340 337 334 332 330 327 326 321 317 317 315 310 294 256 244 249 247 243 244 243 239 235 230 227 228 228 225 222 220 221 221 222 223 223 221 220 220 219 218 217 216 215 215 216 218 219 220 221 222 224 225 226 226 226 228 230 232 234 236 238
332 332 336 339 336 333 331 329 326 325 323 318 313 309 307 300 279 259 252 249 244 241 240 241 238 233 229 229 230 228 223 221 221 221 222 223 222 220 219 220 219 218 217 216 215 215 215 217 219 221 222 223 224 225 227 228 228 228 228 229 231 233 235
327 327 331 335 334 334 332 329 326 323 319 316 311 307 304 299 285 269 259 253 245 238 237 243 245 240 234 231 231 229 224 221 222 221 220 220 220 218 218 219 219 219 218 216 215 215 215 216 218 220 221 223 224 225 227 230 231 231 230 230 230 232 234
327 325 328 331 333 335 334 330 326 323 320 317 313 307 304 299 287 275 266 257 245 240 241 244 246 245 240 235 232 230 226 222 221 220 218 218 218 218 217 217 218 218 218 217 216 215 215 215 216 219 221 222 224 226 228 230 232 234 233 232 231 233 234
328 324 325 330 334 336 336 331 325 321 319 318 315 309 305 300 290 278 267 256 248 248 249 246 246 247 242 235 232 231 229 225 222 220 219 219 219 218 216 216 217 217 217 217 216 215 215 215 215 217 219 221 223 225 227 229 231 234 236 234 233 233 234
325 321 319 326 335 338 337 333 325 320 319 319 318 312 303 298 293 281 265 256 255 258 255 250 253 252 240 231 229 229 228 225 222 220 219 219 218 217 216 215 216 216 216 216 216 215 215 215 215 216 218 220 222 224 226 228 230 233 236 236 235 234 234
317 315 314 324 335 339 338 333 326 323 322 321 320 315 302 293 290 280 269 262 263 266 261 254 257 255 238 228 227 227 224 221 220 219 219 218 217 217 217 216 216 216 216 216 216 216 216 216 216 216 217 219 222 224 225 227 229 231 234 234 234 235 234
310 311 314 325 335 337 338 335 330 329 329 327 324 316 304 295 287 278 273 270 267 270 267 256 254 253 238 227 226 225 220 217 217 217 216 216 216 216 217 217 217 217 217 216 216 216 216 217 217 217 217 218 220 223 225 227 227 229 231 232 232 233 233
305 308 313 323 332 334 337 339 336 333 332 331 328 319 307 301 292 279 273 270 268 274 271 256 251 251 236 225 223 221 216 214 216 215 213 214 215 215 216 218 218 219 219 219 218 216 216 217 218 218 218 219 219 221 223 225 227 229 230 231 231 231 230
306 308 312 318 324 329 337 343 340 336 334 333 332 325 313 306 298 285 277 272 271 281 279 260 250 246 232 222 219 217 213 212 213 213 212 213 215 217 219 220 220 221 221 221 221 220 219 218 218 220 220 220 220 219 219 221 226 230 233 234 234 233 232
305 306 308 312 316 325 338 345 341 335 336 337 337 334 325 315 306 296 288 280 276 284 284 264 245 234 224 218 215 213 211 211 212 212 213 214 215 217 219 221 222 223 223 222 223 223 223 222 222 222 222 221 221 222 222 224 227 230 232 235 236 236 237
299 299 302 306 310 322 336 345 341 336 339 343 343 343 340 331 322 313 302 290 281 281 279 261 239 226 217 214 212 210 209 209 209 210 213 215 216 217 217 219 222 223 222 222 222 223 224 224 225 225 225 224 224 225 226 227 228 229 231 233 235 236 238
294 296 299 301 306 318 333 346 346 340 341 345 346 348 348 341 333 321 305 288 278 273 267 255 240 226 216 212 211 209 208 208 207 207 209 212 215 217 218 220 221 222 221 221 221 222 223 224 225 225 226 227 228 228 228 229 229 230 231 232 233 235 237